Location: Drawsko Pomorskie
(53.5317°N, 15.8111°E)
Time: 21:03:20
(UTC+01:00)

ISS - Pass Details

Date: 02 February 2019
Orbit: 403 x 411 km, 51.6° (Epoch: 22 February)

Event Time Altitude Azimuth Distance (km) Brightness Sun altitude
Rises 18:03:38 0° 268° (W) 2,335 1.9 -12.4°
Reaches altitude 10° 18:05:44 10° 265° (W) 1,475 0.5 -12.7°
Maximum altitude 18:09:00 62° 185° (S) 468 -3.5 -13.2°
Enters shadow 18:10:55 22° 110° (ESE) 947 -2.5 -13.5°
